Location: Peterborough
(44.3091°N, 78.3197°W)
Time: 23:28:17
(UTC-05:00)

A-11 Canister half - Pass Details

Date: 17 December 2023
Orbit: 1512 x 1687 km, 47.2° (Epoch: 24 February)

Event Time Altitude Azimuth Distance (km) Brightness Sun altitude
Rises 19:47:31 0° 210° (SSW) 4,642 11.9 -33.3°
Reaches altitude 10° 19:50:44 10° 203° (SSW) 3,670 11.2 -33.9°
Enters shadow 19:56:38 35° 170° (S) 2,288 9.7 -35.0°
